Location: Clarks Summit,Pa.
(41.5000°N, 75.6000°W)
Time: 01:14:36
(UTC-05:00)

BlueWalker 3 - Pass Details

Date: 04 December 2022
Orbit: 499 x 517 km, 53.2° (Epoch: 07 February)

Event Time Altitude Azimuth Distance (km) Brightness Sun altitude
Rises 18:21:44 0° 310° (NW) 2,627 6.1 -19.8°
Reaches altitude 10° 18:24:26 10° 329° (NNW) 1,734 4.9 -20.3°
Enters shadow 18:26:25 18° 358° (N) 1,302 3.9 -20.7°
